GW1675 Weather Reports


Display with metric or nautical units.
time (UTC)temp
F
wind
direction
speed
MPH
gust
MPH
rain 1hr
in
rain 24hr
in
rain mn
in
humidity
%
barometer
mb
20260503040055 55 0 0.0 0.0 0.00 0.00 0.00 78 1017.2
20260503034552 55 0 0.0 0.0 0.00 0.00 0.00 78 1017.2
20260503033044 56 0 0.0 0.0 0.00 0.00 0.00 78 1017.2
20260503031544 57 0 0.0 0.0 0.00 0.00 0.00 78 1017.2
20260503030104 58 0 0.0 2.0 0.00 0.00 0.00 78 1017.3
20260503024543 59 178 1.0 4.0 0.00 0.00 0.00 78 1017.3
20260503023046 59 178 2.0 5.0 0.00 0.00 0.00 78 1017.3
20260503021545 58 178 2.0 4.0 0.00 0.00 0.00 78 1017.5
20260503020046 58 178 0.0 2.0 0.00 0.00 0.00 78 1017.6
20260503014600 58 0 0.0 0.0 0.00 0.00 0.00 78 1017.6
20260503013042 59 0 0.0 2.0 0.00 0.00 0.00 78 1017.6
20260503011552 59 178 2.0 3.0 0.00 0.00 0.00 78 1017.8
20260503010055 59 178 0.0 1.0 0.00 0.00 0.00 78 1017.8
20260503004546 60 0 0.0 3.0 0.00 0.00 0.00 78 1018.0
20260503003055 60 178 0.0 2.0 0.00 0.00 0.00 78 1018.2
20260503001543 60 0 1.0 5.0 0.00 0.00 0.00 78 1018.3
20260503000042 60 178 2.0 4.0 0.00 0.00 0.00 78 1018.5
20260502234544 60 178 2.0 3.0 0.00 0.00 0.00 77 1018.3
20260502233049 60 178 2.0 3.0 0.00 0.00 0.00 77 1018.3
20260502231545 0 0.0 0.0 0.00 0.00 0.00 1018.3
20260502230046 61 0.0 0.0 0.00 0.00 0.00 76 1018.2
20260502224544 61 178 1.0 4.0 0.00 0.00 0.00 76 1018.2
20260502223044 61 178 2.0 4.0 0.00 0.00 0.00 76 1018.0
20260502221541 61 178 2.0 3.0 0.00 0.00 0.00 76 1018.1
20260502220048 62 178 2.0 5.0 0.00 0.00 0.00 75 1018.2
20260502214552 62 178 3.0 4.0 0.00 0.00 0.00 75 1018.3
20260502213047 62 178 1.0 4.0 0.00 0.00 0.00 75 1018.2
20260502211547 62 178 2.0 5.0 0.00 0.00 0.00 74 1017.9
20260502210043 63 178 2.0 5.0 0.00 0.00 0.00 74 1017.9
20260502204602 63 178 3.0 6.0 0.00 0.00 0.00 74 1017.8
20260502203108 63 178 2.0 6.0 0.00 0.00 0.00 73 1017.7
20260502201545 63 178 2.0 5.0 0.00 0.00 0.00 73 1017.5
20260502200045 64 178 3.0 6.0 0.00 0.00 0.00 73 1017.5
20260502194544 64 178 2.0 7.0 0.00 0.00 0.00 72 1017.4
20260502193041 65 178 3.0 11.0 0.00 0.00 0.00 72 1017.1
20260502191556 65 178 4.0 10.0 0.00 0.00 0.00 72 1017.1
20260502190047 66 177 5.0 11.0 0.00 0.00 0.00 71 1017.2
20260502184545 67 178 7.0 12.0 0.00 0.00 0.00 71 1017.1
20260502183044 68 176 7.0 12.0 0.00 0.00 0.00 71 1017.1
20260502181603 68 176 7.0 12.0 0.00 0.00 0.00 71 1017.2
20260502163050 70 163 9.0 15.0 0.00 0.00 0.00 71 1017.5
20260502161549 71 158 8.0 15.0 0.00 0.00 0.00 71 1017.3
20260502151600 70 145 8.0 12.0 0.00 0.00 0.00 72 1018.0
20260502123045 69 138 6.0 8.0 0.00 0.00 0.00 73 1019.4
20260502121544 68 138 3.0 6.0 0.00 0.00 0.00 73 1019.5
20260502114550 67 162 4.0 8.0 0.00 0.00 0.00 73 1019.8
20260502113043 67 162 3.0 9.0 0.00 0.00 0.00 73 1019.8
20260502111544 68 163 8.0 12.0 0.00 0.00 0.00 74 1020.0
20260502110046 68 162 6.0 9.0 0.00 0.00 0.00 74 1020.1
20260502104551 68 163 1.0 7.0 0.00 0.00 0.00 74 1020.3
20260502103047 66 162 2.0 7.0 0.00 0.00 0.00 74 1020.3
20260502101549 66 162 2.0 5.0 0.00 0.00 0.00 74 1020.4
20260502070044 60 0 0.0 0.0 0.00 0.00 0.00 73 1019.8
20260502064558 59 0 0.0 0.0 0.00 0.00 0.00 72 1019.7
20260502063045 60 0 0.0 0.0 0.00 0.00 0.00 72 1019.6
20260502061547 60 0 0.0 0.0 0.00 0.00 0.00 72 1019.3
20260502060048 60 0 0.0 1.0 0.00 0.00 0.00 72 1019.5
20260502054558 60 0 0.0 0.0 0.00 0.00 0.00 72 1019.5
20260502053046 60 0 0.0 0.0 0.00 0.00 0.00 72 1019.4
20260502051544 61 0 0.0 0.0 0.00 0.00 0.00 72 1019.1
20260502050051 61 0 0.0 0.0 0.00 0.00 0.00 72 1019.2
20260502044550 61 0 0.0 0.0 0.00 0.00 0.00 72 1019.4
20260502043050 61 0 0.0 0.0 0.00 0.00 0.00 72 1019.4
20260502041546 60 0 0.0 0.0 0.00 0.00 0.00 72 1019.3